Flag for Austria Weather past 2 weeks in Bad Radkersburg, Styria, Austria

Now
59 °F

Cool.


Feels Like: 59 °F
Forecast: 47 / 74 °F
Wind: 1 mph from East

Location: Murska Sobota

Current Time: Aug 21, 2014 at 2:45:42 AM

Latest Report: Aug 21, 2014 at 1:00 AM


Visibility: N/A

Pressure: 29.98 "Hg

Humidity: 85%

Dew point: 54 °F

Location of Bad RadkersburgLocation

Historic Weather in Bad Radkersburg — Graph

°F

Bad Radkersburg temperature yesterday

Maximum temperature yesterday: 68 °F (at 3:00 PM)
Minimum temperature yesterday: 60 °F (at 3:00 AM)
Average temperature yesterday: 63 °F

Past Weeks' High & Low Weather Summary

 TemperatureHumidityPressure
High86 °F (Aug 11, 4:00 PM)100% (Aug 10, 3:00 AM)30.10 "Hg (Aug 10, 3:00 AM)
Low49 °F (Aug 18, 6:00 AM)45% (Aug 17, 5:00 PM)29.64 "Hg (Aug 13, 8:00 PM)
Average67 °F81%29.94 "Hg
* Reported Aug 6 1:00 AM — Aug 21 1:00 AM, Bad Radkersburg, Weather by CustomWeather, © 2014

Note: Actual official high and low records may vary slightly from our data, if they occured in-between our weather recording intervals... More about our weather records

Advertising

Bad Radkersburg weather history for previous 24 hours

 ConditionsComfort  
Time TempWeatherWind HumidityBarometerVisibility
1:00 AM
Aug 21
59 °FCool.1 mph85%29.98 "HgN/A
12:00 AM59 °FCool.1 mph85%29.99 "HgN/A
11:00 PM
Aug 20
60 °FCool.2 mph86%29.99 "HgN/A
10:00 PM60 °FCool.1 mph93%29.99 "HgN/A
9:00 PM61 °FCool.2 mph94%30.00 "HgN/A
8:00 PM61 °FFog.1 mph92%29.97 "Hg5 mi
7:00 PM64 °FMild.1 mph87%29.97 "HgN/A
6:00 PM64 °FMild.2 mph87%29.97 "HgN/A
5:00 PM67 °FMild.3 mph73%29.97 "HgN/A
4:00 PM68 °FMild.3 mph74%29.99 "HgN/A
3:00 PM68 °FOvercast.5 mph74%29.99 "Hg6 mi
2:00 PM67 °FPartly sunny.5 mph80%29.99 "Hg6 mi
1:00 PM65 °FMild.1 mph83%30.01 "HgN/A
12:00 PM65 °FMild.2 mph87%30.00 "HgN/A
11:00 AM63 °FMild.2 mph95%30.01 "HgN/A
10:00 AM62 °FCool.3 mph96%30.00 "HgN/A
9:00 AM62 °FCool.No wind97%29.98 "HgN/A
8:00 AM61 °FLight rain. Overcast.1 mph97%29.98 "Hg4 mi
7:00 AM60 °FLight rain. Overcast.No wind96%29.97 "Hg5 mi
6:00 AM60 °FCool.1 mph96%29.96 "HgN/A
5:00 AM60 °FCool.1 mph97%29.95 "HgN/A
4:00 AM60 °FCool.1 mph96%29.94 "HgN/A
3:00 AM60 °FCool.1 mph95%29.94 "HgN/A
2:00 AM60 °FCool.1 mph94%29.94 "HgN/A
Weather by CustomWeather, © 2014

See weather overviewHow to use our weather pages